Back to catalog

FENGYUN 1C DEB

AliveSSO
NORAD 38513·DEBRIS·🇨🇳 China

Launched May 10, 1999 from Taiyuan Satellite Launch Center

Loading…

Next Passes (next 24 hours)

TLE

FreshSource: Space-Track

Epoch: Sep 13, 2026, 12:27 UTC

1 38513U 99025ESY 26256.51915668  .00007902  00000-0  61520-3 0  9992
2 38513  97.6005 149.2370 0227891  66.2128 296.2801 14.83164700677214

Track FENGYUN 1C DEB in real time with AllMySat

Download on the App Store